Regional Weather Roundup
Issued by NWS

Home | Current Version | Previous Version | Text Only | Print | Product List | Glossary Off
Versions: 1 2 3 4 5 6 7 8 9 10 11 12 13 14 15 16 17 18 19 20 21 22 23 24 25 26 27 28 29 30 31 32 33 34 35 36 37 38 39 40 41 42 43 44 45 46 47 48 49 50

739
ASUS43 KOAX 210402
RWRNE

WEATHER ROUNDUP FOR NEBRASKA
NATIONAL WEATHER SERVICE OMAHA NE
1100 PM CDT FRI OCT 20 2017

NOTES: SATELLITE DATA IS BEING USED TO AUGMENT CLOUD COVER ABOVE
       12000 FEET.
       "FAIR" INDICATES FEW OR NO CLOUDS BELOW 12,000 FEET WITH NO
       SIGNIFICANT WEATHER AND/OR OBSTRUCTIONS TO VISIBILITY.


NEZ001>004-019>022-054>056-210500-
NEBRASKA PANHANDLE

CITY           SKY/WX    TMP DP  RH WIND       PRES   REMARKS
SCOTTSBLUFF    CLOUDY    57  41  55 NW3       29.51R
ALLIANCE       CLEAR     50  43  77 S12       29.44F
CHADRON        MOCLDY    70  38  31 SW9       29.42R
GORDON         FAIR      55  46  71 W3        29.43S
KIMBALL        CLOUDY    58  36  43 CALM      29.51S
SIDNEY         CLOUDY    51  39  63 SE8       29.48S
$$

NEZ057>060-069>072-079>082-210500-
SOUTHWEST NEBRASKA

CITY           SKY/WX    TMP DP  RH WIND       PRES   REMARKS
NORTH PLATTE   CLEAR     66  56  70 S20G31    29.48R
IMPERIAL       CLEAR     62  52  69 SE12      29.46F
LEXINGTON      CLEAR     67  57  70 S22G31    29.52F
MCCOOK         CLEAR     67  57  70 S25G39    29.48F
OGALLALA       CLEAR     60  50  71 CALM      29.46S
$$

NEZ005>010-023>029-035>040-094-210500-
NORTH CENTRAL NEBRASKA

CITY           SKY/WX    TMP DP  RH WIND       PRES   REMARKS
VALENTINE      PTCLDY    68  52  56 S18G31    29.44S
AINSWORTH      CLEAR     65  55  69 S21       29.48S
BROKEN BOW     CLEAR     66  56  70 S20G28    29.52F
O`NEILL        CLEAR     67  59  75 S23       29.52F
ORD            CLEAR     67  58  72 S17G31    29.53F
THEDFORD       PTCLDY    66  55  66 S20G28    29.48F
$$

NEZ041-046>049-061>064-073>077-083>087-210500-
SOUTH CENTRAL NEBRASKA

CITY           SKY/WX    TMP DP  RH WIND       PRES   REMARKS
GRAND ISLAND   CLOUDY    68  59  73 S21G30    29.60F
AURORA         PTCLDY    68  56  67 S18G25    29.62F
HASTINGS       CLOUDY    68  57  68 S20G36    29.61F
HEBRON         CLOUDY    70  57  63 S17G24    29.66F
HOLDREGE       CLEAR     66  58  76 S22G31    29.55F
KEARNEY        PTCLDY    67  58  72 S21G29    29.57F
YORK           PTCLDY    68  57  68 S21G28    29.64F
$$

NEZ011>018-030>034-042>045-210500-
NORTHEAST NEBRASKA

CITY           SKY/WX    TMP DP  RH WIND       PRES   REMARKS
NORFOLK        PTCLDY    68  57  68 S21G30    29.60R
ALBION         PTCLDY    69  58  69 S18G28    29.60S
BLAIR          CLOUDY    68  57  68 S17G33    29.70S
COLUMBUS       PTCLDY    68  58  70 S17G25    29.64
FREMONT        CLEAR     68  56  65 SE16G23   29.69S
TEKAMAH        CLOUDY    69  56  62 S20G32    29.68R
WAYNE          CLOUDY    67  58  72 S21       29.62S
$$

NEZ050>053-065>068-078-088>093-210500-
SOUTHEAST NEBRASKA

CITY           SKY/WX    TMP DP  RH WIND       PRES   REMARKS
LINCOLN        CLEAR     67  57  70 S17G30    29.69S
OMAHA EPPLEY   CLOUDY    69  56  62 S24G38    29.71F
BEATRICE       PTCLDY    67  59  75 S18G24    29.71S
FALLS CITY     CLEAR     66  56  70 SE13G23   29.77F
NEBRASKA CITY  PTCLDY    66  59  78 S16G22    29.75F
PLATTSMOUTH    PTCLDY    66  58  73 S13G23    29.74S
$$

NEZ044-045-051>053-067-210500-
OMAHA AREA

CITY           SKY/WX    TMP DP  RH WIND       PRES   REMARKS
OMAHA EPPLEY   CLOUDY    69  56  62 S24G38    29.71F
BLAIR          CLOUDY    68  57  68 S17G33    29.70S
FREMONT        CLEAR     68  56  65 SE16G23   29.69S
MILLARD        CLOUDY    69  58  68 S17G23    29.71S
OFFUTT AFB     CLOUDY    67  57  70 SE16G22   29.72F
PLATTSMOUTH    PTCLDY    66  58  73 S13G23    29.74S
WAHOO          FAIR      68  56  67 S21G28    29.69S
$$




USA.gov is the U.S. government's official web portal to all federal, state and local government web resources and services.